TimeCST,TemperatureF,Dew PointF,Humidity,Sea Level PressureIn,VisibilityMPH,Wind Direction,Wind SpeedMPH,Gust SpeedMPH,PrecipitationIn,Events,Conditions,WindDirDegrees,DateUTC
12:53 AM,-0.0,-9.9,63,30.29,10.0,NNW,8.1,-,N/A,,Clear,340,2014-01-21 06:53:00
1:53 AM,-0.9,-9.9,66,30.31,10.0,NNW,5.8,-,N/A,,Clear,330,2014-01-21 07:53:00
2:53 AM,-2.9,-9.9,72,30.33,10.0,NW,4.6,-,N/A,,Clear,320,2014-01-21 08:53:00
3:53 AM,-9.0,-13.0,83,30.35,10.0,NW,4.6,-,N/A,,Clear,310,2014-01-21 09:53:00
4:53 AM,-9.9,-13.0,86,30.35,10.0,West,5.8,-,N/A,,Clear,280,2014-01-21 10:53:00
5:53 AM,-9.0,-14.1,79,30.36,10.0,WNW,6.9,-,N/A,,Clear,290,2014-01-21 11:53:00
6:53 AM,-11.0,-15.0,83,30.37,10.0,West,6.9,-,N/A,,Clear,270,2014-01-21 12:53:00
7:53 AM,-9.9,-15.0,78,30.37,10.0,WNW,8.1,-,N/A,,Clear,290,2014-01-21 13:53:00
8:53 AM,-6.0,-11.9,75,30.37,10.0,NW,9.2,-,N/A,,Clear,310,2014-01-21 14:53:00
9:53 AM,-0.0,-9.0,66,30.36,10.0,NW,8.1,-,N/A,,Clear,310,2014-01-21 15:53:00
10:53 AM,1.9,-8.0,63,30.36,10.0,NW,8.1,-,N/A,,Clear,320,2014-01-21 16:53:00
11:53 AM,3.0,-8.0,60,30.33,10.0,NW,6.9,-,N/A,,Clear,310,2014-01-21 17:53:00
12:53 PM,3.9,-7.1,60,30.32,10.0,West,9.2,-,N/A,,Clear,260,2014-01-21 18:53:00
1:53 PM,5.0,-7.1,58,30.30,10.0,WNW,6.9,-,N/A,,Clear,290,2014-01-21 19:53:00
2:53 PM,3.9,-7.1,60,30.30,10.0,West,9.2,-,N/A,,Clear,280,2014-01-21 20:53:00
3:53 PM,3.9,-7.1,60,30.28,10.0,SW,8.1,-,N/A,,Clear,220,2014-01-21 21:53:00
4:53 PM,1.0,-9.0,63,30.27,10.0,SW,9.2,-,N/A,,Partly Cloudy,220,2014-01-21 22:53:00
5:53 PM,-0.9,-9.9,66,30.26,10.0,SSW,6.9,-,N/A,,Clear,210,2014-01-21 23:53:00
6:53 PM,-2.0,-9.9,69,30.26,10.0,SSW,4.6,-,N/A,,Overcast,200,2014-01-22 00:53:00
7:53 PM,-2.0,-9.0,72,30.25,10.0,SSW,5.8,-,N/A,,Overcast,200,2014-01-22 01:53:00
8:53 PM,-0.9,-9.0,69,30.23,10.0,SSW,6.9,-,N/A,,Overcast,210,2014-01-22 02:53:00
9:53 PM,-2.9,-9.9,72,30.22,10.0,SSW,3.5,-,N/A,,Mostly Cloudy,210,2014-01-22 03:53:00
10:53 PM,-6.0,-13.0,72,30.20,10.0,SSW,3.5,-,N/A,,Mostly Cloudy,200,2014-01-22 04:53:00
11:53 PM,-4.0,-11.0,72,30.17,10.0,SW,3.5,-,N/A,,Overcast,220,2014-01-22 05:53:00